[[{"header":{"parameterUnit":"m.s-1","parameterCategory":2,"la1":30.2991,"la2":30.254,"lo1":-89.0895,"lo2":-89.0444,"dy":0.0017,"dx":0.0017,"nx":28,"ny":28,"refTime":"2024-06-21T21:00:00:Z","depth":"0","parameterNumber":2,"parameterNumberName":"U-component_of_CURRENTS"},"data":[0,0,0,0,0,0,0,0,0,0,0,0,0,0,0,0,0,0,0,0,0,0,0,0,0,0,0,0,0,0,0,0,0,0,0,0,0,0,0,0,0,0,0,0,0,0,0,0,0,0,0,0,0,0,0,0,0,0,-0.2258,-0.2259,0,-0.2341,-0.2342,-0.2342,-0.2343,-0.2342,-0.2341,-0.234,-0.2396,-0.2398,-0.2401,0,0,0,0,0,0,0,0,0,0,0,0,0,-0.2128,-0.213,-0.2258,-0.226,-0.2261,-0.2341,-0.2342,-0.2343,-0.2343,-0.2342,-0.2341,-0.234,-0.2396,-0.2398,-0.2401,0,0,0,0,0,0,0,0,0,0,0,0,0,-0.2192,-0.213,-0.2258,-0.2272,-0.2275,-0.2341,-0.2342,-0.2343,-0.2343,-0.2342,-0.234,-0.2339,-0.2395,-0.2398,-0.2401,-0.2448,0,0,-0.2412,-0.2413,0,0,0,0,0,0,0,0,-0.2189,-0.2197,-0.2269,-0.2272,-0.2274,-0.2332,-0.2317,-0.2377,-0.2343,-0.2314,-0.234,-0.2339,-0.2375,-0.238,-0.2395,-0.245,-0.2453,-0.2412,-0.2414,-0.2416,-0.2417,0,0,0,0,0,0,0,-0.2184,-0.2193,-0.2288,-0.2271,-0.2274,-0.2284,-0.2291,-0.2328,-0.2348,-0.2317,-0.2318,-0.2331,-0.2376,-0.2392,-0.2396,-0.2453,-0.2412,-0.2415,-0.2417,-0.2418,-0.2538,-0.2539,0,0,0,0,0,0,-0.2179,-0.2189,-0.2286,-0.2291,-0.223,-0.2288,-0.2296,-0.2313,-0.2349,-0.2354,-0.2332,-0.2331,-0.2387,-0.2392,-0.2398,-0.2447,-0.2416,-0.2419,-0.2421,-0.2537,-0.2538,-0.2539,0,0,0,0,0,0,-0.2176,-0.2187,-0.2283,-0.2244,-0.2257,-0.2291,-0.2311,-0.2315,-0.2328,-0.2361,-0.2365,-0.234,-0.2386,-0.2394,-0.244,-0.2449,-0.242,-0.2423,-0.2536,-0.2537,-0.2539,-0.2549,0,0,0,0,0,0,-0.2172,-0.2186,-0.2199,-0.2244,-0.2259,-0.2323,-0.2312,-0.2318,-0.234,-0.2339,-0.237,-0.2374,-0.2385,-0.2435,-0.2443,-0.2453,-0.2426,-0.2534,-0.2536,-0.2538,-0.2548,-0.2551,-0.2554,0,0,0,0,0,-0.2167,-0.2192,-0.2199,-0.2211,-0.2275,-0.2324,-0.2333,-0.2351,-0.2342,-0.2355,-0.238,-0.2372,-0.2453,-0.244,-0.2449,-0.246,-0.2533,-0.2536,-0.2538,-0.2546,-0.255,-0.2554,0,0,0,0,0,0,-0.2148,-0.2196,-0.2204,-0.2244,-0.228,-0.2325,-0.2343,-0.2354,-0.2384,-0.2381,-0.2399,-0.2407,-0.2448,-0.2459,-0.2443,-0.2501,-0.2488,-0.2492,-0.249,-0.2495,-0.2498,-0.2508,-0.2429,0,0,0,0,0,-0.215,-0.2177,-0.2224,-0.2256,-0.2272,-0.2306,-0.2328,-0.2342,-0.2376,-0.2387,-0.241,-0.2436,-0.2469,-0.2485,-0.2516,-0.2556,-0.2559,-0.2567,-0.257,-0.2573,-0.2588,-0.2603,-0.2609,-0.2548,-0.2548,-0.2548,0,0,-0.2151,-0.2183,-0.2197,-0.2253,-0.2279,-0.2312,-0.2315,-0.2351,-0.2376,-0.2391,-0.243,-0.2454,-0.2484,-0.2526,-0.2544,-0.2534,-0.2589,-0.2576,-0.2578,-0.2592,-0.2607,-0.2612,-0.2617,-0.255,-0.2549,-0.2549,0,0,-0.2171,-0.2194,-0.2222,-0.225,-0.2297,-0.2319,-0.2328,-0.2374,-0.2389,-0.2437,-0.245,-0.2491,-0.2532,-0.2565,-0.2583,-0.2629,-0.2609,-0.2622,-0.2646,-0.266,-0.2665,-0.2669,-0.2664,-0.2668,-0.262,-0.262,-0.262,0,-0.2173,-0.2211,-0.2238,-0.2272,-0.2293,-0.232,-0.2349,-0.2379,-0.2434,-0.2456,-0.2447,-0.2531,-0.2556,-0.2616,-0.2629,-0.2638,-0.2628,-0.2624,-0.2663,-0.2668,-0.2672,-0.2666,-0.267,-0.262,-0.262,-0.262,-0.262,0,-0.221,-0.2239,-0.2258,-0.2303,-0.233,-0.236,-0.2398,-0.2428,-0.2443,-0.2475,-0.2534,-0.2577,-0.2625,-0.2634,-0.2648,-0.2694,-0.2671,-0.2665,-0.2648,-0.2678,-0.267,-0.2675,-0.2622,-0.2621,-0.2621,-0.2621,0,0,-0.2225,-0.2273,-0.228,-0.2296,-0.2343,-0.237,-0.2411,-0.2463,-0.249,-0.2538,-0.2582,-0.2648,-0.2667,-0.2691,-0.2711,-0.273,-0.2751,-0.2707,-0.2708,-0.2695,-0.2759,-0.2568,-0.2553,-0.2737,-0.2738,-0.2739,-0.2735,0,-0.2247,-0.2301,-0.2318,-0.2358,-0.2385,-0.2408,-0.244,-0.2488,-0.2525,-0.2576,-0.2628,-0.2675,-0.2687,-0.2705,-0.2733,-0.2754,-0.2765,-0.2752,-0.274,-0.274,-0.2559,-0.2553,-0.2432,-0.2402,-0.2739,-0.274,-0.274,0,-0.228,-0.231,-0.2352,-0.238,-0.2391,-0.2414,-0.2462,-0.2495,-0.2569,-0.2595,-0.2657,-0.2694,-0.276,-0.2747,-0.2799,-0.2782,-0.2777,-0.2781,-0.278,-0.2604,-0.2555,-0.2431,-0.2397,-0.2337,-0.2746,-0.2746,-0.2745,0,-0.2284,-0.2329,-0.2357,-0.2371,-0.2413,-0.2428,-0.2445,-0.2507,-0.2535,-0.261,-0.2641,-0.2716,-0.275,-0.2773,-0.2793,-0.279,-0.2821,-0.2818,-0.2644,-0.2631,-0.2528,-0.2502,-0.2429,-0.2843,-0.2843,-0.2843,-0.2843,0,-0.2304,-0.2325,-0.2358,-0.2377,-0.2401,-0.2423,-0.2453,-0.2488,-0.2539,-0.2584,-0.2648,-0.2696,-0.2754,-0.2785,-0.2795,-0.2717,-0.2821,-0.2643,-0.2613,-0.2523,-0.2498,-0.244,-0.2493,-0.2843,-0.2843,-0.2843,-0.2843,0,-0.2311,-0.2334,-0.2368,-0.2403,-0.2408,-0.2426,-0.2444,-0.2469,-0.2512,-0.2573,-0.2596,-0.2681,-0.2708,-0.2744,-0.2775,-0.2686,-0.259,-0.2605,-0.2477,-0.2428,-0.2137,-0.2197,-0.2163,-0.2097,-0.2387,-0.2382,-0.2378,0,-0.2321,-0.2343,-0.2383,-0.2397,-0.2411,-0.2427,-0.2437,-0.246,-0.2486,-0.2566,-0.2599,-0.2645,-0.2674,-0.2616,-0.2498,-0.2424,-0.247,-0.2211,-0.2173,-0.2084,-0.2134,-0.2204,-0.216,-0.2062,-0.2055,-0.205,-0.2046,0,-0.2336,-0.2353,-0.2379,-0.2412,-0.2424,-0.2428,-0.2443,-0.2457,-0.2494,-0.2535,-0.2585,-0.2607,-0.2524,-0.2365,-0.2205,-0.2149,-0.2122,-0.2091,-0.2065,-0.1909,-0.1928,-0.186,-0.2104,-0.2,-0.2004,-0.2008,-0.201,-0.2012,-0.2341,-0.2359,-0.2394,-0.2421,-0.2435,-0.2437,-0.2419,-0.2442,-0.2462,-0.249,-0.2533,-0.2503,-0.2274,-0.2024,-0.1928,-0.1615,-0.1788,-0.153,-0.1625,-0.1714,-0.1596,-0.1692,-0.1498,-0.15,-0.1501,-0.1503,-0.1504,0,-0.2342,-0.2364,-0.2396,-0.2417,-0.2424,-0.2427,-0.2426,-0.2393,-0.24,-0.2393,-0.2396,-0.2188,-0.1922,-0.1709,-0.1321,-0.1179,-0.1197,-0.1163,-0.1289,-0.1274,-0.1397,-0.1317,-0.0994,-0.0994,-0.0994,-0.0994,-0.0995,-0.0995,-0.2341,-0.2368,-0.2386,-0.24,-0.2407,-0.2365,-0.2348,-0.2307,-0.2268,-0.2156,-0.2043,-0.1978,-0.1679,-0.1438,-0.1098,-0.1011,-0.1033,-0.1007,-0.106,-0.1192,-0.1236,-0.1278,-0.1209,-0.0869,-0.0869,-0.0866,-0.0866,-0.0867]},{"header":{"parameterUnit":"m.s-1","parameterCategory":2,"la1":30.2991,"la2":30.254,"lo1":-89.0895,"lo2":-89.0444,"dy":0.0017,"dx":0.0017,"nx":28,"ny":28,"refTime":"2024-06-21T21:00:00:Z","depth":"0","parameterNumber":3,"parameterNumberName":"V-component_of_CURRENTS"},"data":[0,0,0,0,0,0,0,0,0,0,0,0,0,0,0,0,0,0,0,0,0,0,0,0,0,0,0,0,0,0,0,0,0,0,0,0,0,0,0,0,0,0,0,0,0,0,0,0,0,0,0,0,0,0,0,0,0,0,-0.2142,-0.2141,0,-0.2093,-0.2092,-0.2092,-0.2034,-0.2034,-0.2033,-0.2032,-0.1734,-0.1727,-0.172,0,0,0,0,0,0,0,0,0,0,0,0,0,-0.2145,-0.2146,-0.2142,-0.2141,-0.2141,-0.2093,-0.2092,-0.2091,-0.2034,-0.2034,-0.2033,-0.2032,-0.1736,-0.1728,-0.1719,0,0,0,0,0,0,0,0,0,0,0,0,0,-0.2123,-0.2146,-0.2142,-0.2108,-0.2104,-0.2093,-0.2092,-0.2091,-0.2035,-0.2034,-0.2032,-0.2031,-0.1739,-0.1728,-0.1718,-0.1672,0,0,-0.1684,-0.168,0,0,0,0,0,0,0,0,-0.2125,-0.2123,-0.2113,-0.211,-0.2106,-0.207,-0.1984,-0.1939,-0.2035,-0.2059,-0.2032,-0.2031,-0.1825,-0.1807,-0.1801,-0.1658,-0.1645,-0.1683,-0.1677,-0.1672,-0.1669,0,0,0,0,0,0,0,-0.2126,-0.2125,-0.2121,-0.2113,-0.2109,-0.2081,-0.2077,-0.1976,-0.1943,-0.2057,-0.2053,-0.2051,-0.1821,-0.1812,-0.1793,-0.1641,-0.1684,-0.1674,-0.1667,-0.1663,-0.1414,-0.1414,0,0,0,0,0,0,-0.2139,-0.2127,-0.2122,-0.2119,-0.2115,-0.2082,-0.2078,-0.2081,-0.1949,-0.1931,-0.2052,-0.2048,-0.1832,-0.1806,-0.1782,-0.1705,-0.1672,-0.1662,-0.1656,-0.1414,-0.1414,-0.1414,0,0,0,0,0,0,-0.214,-0.214,-0.2124,-0.2122,-0.2119,-0.2084,-0.2088,-0.2081,-0.2065,-0.1948,-0.1924,-0.2042,-0.183,-0.1797,-0.1701,-0.1693,-0.1657,-0.1647,-0.1414,-0.1414,-0.1414,-0.1559,0,0,0,0,0,0,-0.214,-0.214,-0.2145,-0.2124,-0.212,-0.2111,-0.2089,-0.2081,-0.2066,-0.2061,-0.1931,-0.1904,-0.1826,-0.1718,-0.169,-0.1677,-0.1639,-0.1414,-0.1414,-0.1414,-0.1554,-0.1563,-0.1572,0,0,0,0,0,-0.214,-0.2152,-0.2146,-0.2145,-0.2128,-0.2112,-0.2106,-0.2077,-0.2067,-0.2058,-0.1984,-0.1908,-0.1696,-0.1709,-0.1676,-0.166,-0.1414,-0.1414,-0.1414,-0.155,-0.1562,-0.1571,0,0,0,0,0,0,-0.2149,-0.2147,-0.2139,-0.2148,-0.2129,-0.2102,-0.2096,-0.208,-0.2022,-0.201,-0.1905,-0.1872,-0.1786,-0.1702,-0.1719,-0.1588,-0.1542,-0.1535,-0.1657,-0.1666,-0.1675,-0.1718,-0.163,0,0,0,0,0,-0.2158,-0.217,-0.2152,-0.2158,-0.2151,-0.2126,-0.2116,-0.2098,-0.2049,-0.2025,-0.1942,-0.1847,-0.1763,-0.17,-0.1612,-0.1533,-0.1459,-0.15,-0.1509,-0.1518,-0.153,-0.144,-0.1443,-0.1413,-0.1413,-0.1413,0,0,-0.2157,-0.2164,-0.2165,-0.2161,-0.2146,-0.2137,-0.2116,-0.2104,-0.2096,-0.1994,-0.1947,-0.1871,-0.1751,-0.1679,-0.163,-0.1603,-0.1482,-0.1517,-0.1526,-0.1533,-0.1441,-0.1444,-0.1446,-0.1413,-0.1413,-0.1413,0,0,-0.2168,-0.2173,-0.2182,-0.217,-0.2158,-0.2148,-0.2146,-0.2119,-0.2104,-0.2054,-0.1988,-0.1926,-0.178,-0.172,-0.1662,-0.166,-0.1539,-0.1613,-0.1679,-0.1593,-0.1596,-0.1597,-0.1496,-0.1487,-0.161,-0.161,-0.161,0,-0.2167,-0.218,-0.2178,-0.2179,-0.2174,-0.2155,-0.2152,-0.2138,-0.2084,-0.2076,-0.2046,-0.1898,-0.1807,-0.1731,-0.1745,-0.1682,-0.1604,-0.1655,-0.1608,-0.1608,-0.1606,-0.1502,-0.149,-0.1617,-0.1616,-0.1615,-0.1615,0,-0.2176,-0.2183,-0.2186,-0.2189,-0.2184,-0.2178,-0.2164,-0.2161,-0.2145,-0.2125,-0.2065,-0.1969,-0.1881,-0.1845,-0.1794,-0.174,-0.1677,-0.164,-0.1592,-0.1619,-0.1506,-0.1491,-0.1627,-0.1624,-0.1622,-0.1621,0,0,-0.2187,-0.2192,-0.2194,-0.2198,-0.2189,-0.219,-0.2193,-0.2191,-0.2196,-0.2148,-0.2135,-0.2039,-0.2006,-0.1942,-0.1867,-0.1807,-0.1741,-0.1733,-0.1725,-0.1652,-0.1529,-0.1408,-0.1379,-0.1692,-0.1691,-0.169,-0.1451,0,-0.2193,-0.2207,-0.2207,-0.2215,-0.2219,-0.2215,-0.2221,-0.222,-0.2205,-0.2188,-0.2126,-0.2066,-0.2032,-0.1988,-0.1933,-0.1791,-0.171,-0.1808,-0.1497,-0.1487,-0.1393,-0.1361,-0.1279,-0.1053,-0.1436,-0.1433,-0.1432,0,-0.2205,-0.2217,-0.2228,-0.2244,-0.2245,-0.2249,-0.2272,-0.227,-0.2255,-0.2237,-0.2198,-0.2138,-0.2064,-0.2019,-0.1812,-0.1872,-0.1718,-0.1607,-0.1593,-0.1422,-0.1338,-0.1086,-0.1011,-0.0792,-0.1408,-0.141,-0.1411,0,-0.2236,-0.2237,-0.2256,-0.2253,-0.2263,-0.2279,-0.2287,-0.2289,-0.2294,-0.2262,-0.2246,-0.2158,-0.2085,-0.1929,-0.1739,-0.1756,-0.149,-0.1468,-0.1205,-0.1194,-0.1033,-0.101,-0.0727,-0.1296,-0.1297,-0.1298,-0.1298,0,-0.226,-0.2272,-0.227,-0.2282,-0.2305,-0.2302,-0.2328,-0.233,-0.2321,-0.2321,-0.2267,-0.2227,-0.2058,-0.1903,-0.1733,-0.1425,-0.147,-0.1203,-0.1121,-0.1078,-0.1062,-0.0791,-0.0739,-0.1289,-0.1291,-0.1292,-0.1294,0,-0.2298,-0.2294,-0.2309,-0.2317,-0.2323,-0.2339,-0.2355,-0.2375,-0.2356,-0.235,-0.2337,-0.2247,-0.2054,-0.186,-0.1575,-0.1378,-0.0965,-0.099,-0.0948,-0.0866,-0.0417,-0.0379,-0.0048,0.0078,-0.0648,-0.0644,-0.064,0,-0.2321,-0.2336,-0.2339,-0.2349,-0.2353,-0.2373,-0.2398,-0.2396,-0.241,-0.236,-0.2356,-0.2187,-0.2089,-0.1635,-0.1273,-0.0908,-0.0777,-0.0548,-0.0568,-0.0359,-0.0256,-0.0262,-0.0183,-0.0401,-0.0396,-0.0391,-0.0388,0,-0.2362,-0.2359,-0.2368,-0.2394,-0.2414,-0.2437,-0.2464,-0.248,-0.2474,-0.2452,-0.2398,-0.2315,-0.1891,-0.1481,-0.0973,-0.0719,-0.0385,-0.0441,-0.023,-0.0038,-0.002,0.0129,-0.0591,-0.0348,-0.0352,-0.0355,-0.0357,-0.0359,-0.2384,-0.239,-0.241,-0.2437,-0.2465,-0.2508,-0.2543,-0.2546,-0.2558,-0.2516,-0.2442,-0.2267,-0.1647,-0.0952,-0.065,0.0075,-0.0059,0.0285,0.0318,0.0296,0.0408,-0.0219,0.0111,0.0109,0.0108,0.0107,0.0106,0,-0.2406,-0.2426,-0.2457,-0.2496,-0.2556,-0.2553,-0.2601,-0.2621,-0.2628,-0.2493,-0.2428,-0.1819,-0.1182,-0.0535,0.0422,0.0793,0.0841,0.0967,0.0972,0.102,0.0496,0.0497,0.0931,0.0931,0.0931,0.0931,0.093,0.093,-0.2415,-0.2455,-0.2477,-0.2579,-0.2618,-0.2702,-0.2731,-0.2714,-0.2626,-0.2326,-0.1985,-0.1724,-0.0772,0.0462,0.131,0.1419,0.1622,0.1613,0.1703,0.1334,0.1272,0.1212,0.1231,0.1812,0.1812,0.2218,0.2222,0.2225]}],[{"header":{"parameterUnit":"m.s-1","parameterCategory":2,"la1":30.2991,"la2":30.254,"lo1":-89.0895,"lo2":-89.0444,"dy":0.0017,"dx":0.0017,"nx":28,"ny":28,"refTime":"2024-06-21T21:00:00:Z","depth":"2","parameterNumber":2,"parameterNumberName":"U-component_of_CURRENTS"},"data":[0,0,0,0,0,0,0,0,0,0,0,0,0,0,0,0,0,0,0,0,0,0,0,0,0,0,0,0,0,0,0,0,0,0,0,0,0,0,0,0,0,0,0,0,0,0,0,0,0,0,0,0,0,0,0,0,0,0,-0.1628,-0.1629,0,-0.1688,-0.1688,-0.1689,-0.1697,-0.1697,-0.1696,-0.1696,-0.1762,-0.1764,-0.1766,0,0,0,0,0,0,0,0,0,0,0,0,0,-0.1558,-0.1559,-0.1628,-0.1629,-0.163,-0.1688,-0.1688,-0.1689,-0.1697,-0.1697,-0.1696,-0.1696,-0.1761,-0.1763,-0.1766,0,0,0,0,0,0,0,0,0,0,0,0,0,-0.1598,-0.1559,-0.1628,-0.1643,-0.1645,-0.1688,-0.1688,-0.1689,-0.1697,-0.1697,-0.1696,-0.1696,-0.176,-0.1763,-0.1766,-0.1796,0,0,-0.1776,-0.1777,0,0,0,0,0,0,0,0,-0.1595,-0.16,-0.1639,-0.1642,-0.1644,-0.1686,-0.1688,-0.1726,-0.1697,-0.1675,-0.1696,-0.1695,-0.1739,-0.1744,-0.1753,-0.1799,-0.1802,-0.1776,-0.1778,-0.1779,-0.178,0,0,0,0,0,0,0,-0.1593,-0.1598,-0.1649,-0.1641,-0.1643,-0.1659,-0.1663,-0.1695,-0.1708,-0.1677,-0.1678,-0.1688,-0.174,-0.175,-0.1755,-0.1803,-0.1776,-0.1779,-0.1781,-0.1782,-0.1932,-0.1935,0,0,0,0,0,0,-0.1588,-0.1595,-0.1648,-0.1651,-0.162,-0.1661,-0.1666,-0.1672,-0.1707,-0.1713,-0.1689,-0.1689,-0.1745,-0.1751,-0.1757,-0.1849,-0.1779,-0.1782,-0.1784,-0.193,-0.1933,-0.1935,0,0,0,0,0,0,-0.1587,-0.1592,-0.1645,-0.1627,-0.1635,-0.1662,-0.1669,-0.1673,-0.169,-0.1717,-0.1722,-0.1702,-0.1745,-0.1753,-0.1804,-0.1849,-0.1784,-0.1786,-0.1928,-0.1931,-0.1934,-0.1999,0,0,0,0,0,0,-0.1584,-0.1591,-0.1597,-0.1626,-0.1636,-0.1684,-0.167,-0.1675,-0.1698,-0.1698,-0.173,-0.1735,-0.1745,-0.18,-0.1808,-0.1853,-0.1789,-0.1925,-0.1929,-0.1933,-0.1994,-0.2004,-0.2012,0,0,0,0,0,-0.1581,-0.1587,-0.1597,-0.1604,-0.1641,-0.1686,-0.1693,-0.1709,-0.1699,-0.1719,-0.1742,-0.1734,-0.1831,-0.1804,-0.1813,-0.186,-0.1923,-0.1928,-0.1933,-0.199,-0.2002,-0.2012,0,0,0,0,0,0,-0.1554,-0.159,-0.1601,-0.1616,-0.1657,-0.1688,-0.17,-0.1715,-0.1747,-0.1742,-0.1761,-0.1769,-0.1831,-0.1838,-0.1808,-0.1915,-0.1876,-0.1883,-0.1917,-0.1928,-0.1937,-0.1909,-0.1791,0,0,0,0,0,-0.1554,-0.1571,-0.1612,-0.1628,-0.1643,-0.1674,-0.1692,-0.1709,-0.174,-0.1753,-0.1784,-0.1816,-0.1858,-0.1885,-0.1917,-0.1977,-0.1945,-0.2014,-0.2023,-0.203,-0.2015,-0.2013,-0.2019,-0.1951,-0.1951,-0.1951,0,0,-0.1549,-0.157,-0.1581,-0.1625,-0.1646,-0.1687,-0.1683,-0.1714,-0.1759,-0.1756,-0.1821,-0.1847,-0.1879,-0.1947,-0.1976,-0.196,-0.2035,-0.2036,-0.2043,-0.2022,-0.2018,-0.2024,-0.203,-0.1954,-0.1954,-0.1953,0,0,-0.1544,-0.1565,-0.1576,-0.1615,-0.1659,-0.1693,-0.1706,-0.1755,-0.1783,-0.185,-0.1862,-0.1906,-0.1978,-0.201,-0.2034,-0.2111,-0.2078,-0.2138,-0.2169,-0.2169,-0.2174,-0.2177,-0.2144,-0.2144,-0.2148,-0.2148,-0.2149,0,-0.1532,-0.156,-0.1589,-0.1616,-0.1656,-0.1699,-0.1736,-0.178,-0.1847,-0.1877,-0.1877,-0.1976,-0.2003,-0.2079,-0.2112,-0.213,-0.2113,-0.2125,-0.2178,-0.2181,-0.2183,-0.2148,-0.2147,-0.2152,-0.2152,-0.2151,-0.2151,0,-0.1543,-0.1573,-0.1583,-0.1641,-0.169,-0.1729,-0.1801,-0.1854,-0.1895,-0.1935,-0.2013,-0.2053,-0.2105,-0.2139,-0.2152,-0.2207,-0.2182,-0.2182,-0.2142,-0.2193,-0.2154,-0.2152,-0.2157,-0.2156,-0.2155,-0.2154,0,0,-0.1497,-0.1573,-0.1582,-0.1614,-0.1709,-0.1747,-0.1834,-0.1919,-0.196,-0.2032,-0.2082,-0.2167,-0.2174,-0.22,-0.223,-0.2241,-0.2252,-0.2228,-0.2226,-0.2179,-0.223,-0.2095,-0.208,-0.2267,-0.2267,-0.2267,-0.2193,0,-0.1498,-0.1543,-0.1602,-0.1676,-0.1706,-0.1795,-0.1874,-0.1957,-0.2022,-0.2084,-0.2131,-0.2188,-0.2206,-0.2232,-0.2252,-0.2264,-0.225,-0.2269,-0.2199,-0.2196,-0.2058,-0.2074,-0.1914,-0.1825,-0.2191,-0.2191,-0.219,0,-0.1496,-0.1527,-0.1584,-0.1686,-0.171,-0.1774,-0.1895,-0.1971,-0.2071,-0.2117,-0.2177,-0.2209,-0.2269,-0.2253,-0.2276,-0.2293,-0.2255,-0.2242,-0.2239,-0.2081,-0.2057,-0.1835,-0.1807,-0.2186,-0.2186,-0.2187,-0.2187,0,-0.1441,-0.1526,-0.1571,-0.1607,-0.1724,-0.1776,-0.1854,-0.1969,-0.2029,-0.2127,-0.216,-0.2234,-0.2262,-0.2259,-0.2246,-0.2268,-0.2221,-0.2247,-0.2074,-0.2064,-0.1892,-0.1865,-0.2204,-0.2204,-0.2204,-0.2204,-0.2204,0,-0.1421,-0.1459,-0.1543,-0.1565,-0.1632,-0.1732,-0.1813,-0.1904,-0.2006,-0.206,-0.216,-0.2187,-0.2263,-0.2255,-0.2236,-0.2138,-0.221,-0.2057,-0.2033,-0.191,-0.1887,-0.2175,-0.2173,-0.2201,-0.2202,-0.2202,-0.2203,0,-0.1355,-0.1414,-0.1459,-0.1563,-0.1603,-0.1646,-0.1782,-0.1832,-0.1946,-0.2014,-0.2044,-0.2153,-0.2174,-0.2196,-0.2179,-0.21,-0.2034,-0.1961,-0.1793,-0.1749,-0.1881,-0.1884,-0.1786,-0.1781,-0.1776,-0.1772,-0.1769,0,-0.1322,-0.1333,-0.1429,-0.1455,-0.1503,-0.1582,-0.1641,-0.1783,-0.1834,-0.1971,-0.1984,-0.2046,-0.2054,-0.1981,-0.188,-0.179,-0.191,-0.1551,-0.1556,-0.185,-0.1838,-0.1847,-0.1856,-0.1363,-0.1357,-0.1351,-0.1347,0,-0.1244,-0.1281,-0.1314,-0.1372,-0.1428,-0.1501,-0.159,-0.1621,-0.1775,-0.1831,-0.1884,-0.1896,-0.1833,-0.1679,-0.155,-0.1474,-0.1569,-0.1438,-0.1789,-0.1487,-0.1443,-0.1434,-0.1458,-0.1301,-0.1306,-0.1309,-0.1312,-0.1314,-0.1173,-0.1181,-0.1233,-0.1287,-0.1354,-0.1424,-0.1449,-0.1537,-0.1607,-0.1664,-0.1722,-0.1667,-0.1564,-0.1306,-0.1204,-0.112,-0.1232,-0.1161,-0.1181,-0.1206,-0.1164,-0.1113,-0.09,-0.0903,-0.0904,-0.0906,-0.0908,0,-0.1066,-0.1114,-0.1152,-0.1223,-0.1265,-0.1346,-0.1418,-0.1404,-0.1441,-0.1484,-0.1505,-0.1227,-0.1089,-0.1044,-0.0815,-0.0713,-0.0749,-0.0706,-0.0777,-0.0819,-0.0857,-0.0804,-0.0442,-0.0441,-0.0441,-0.044,0,0,-0.1013,-0.1021,-0.106,-0.112,-0.118,-0.1216,-0.1239,-0.1215,-0.1221,-0.1143,-0.1083,-0.1104,-0.1016,-0.0755,-0.0655,-0.0552,-0.0714,-0.0515,-0.0878,-0.101,-0.105,-0.1086,-0.1044,0,0,0,0,0]},{"header":{"parameterUnit":"m.s-1","parameterCategory":2,"la1":30.2991,"la2":30.254,"lo1":-89.0895,"lo2":-89.0444,"dy":0.0017,"dx":0.0017,"nx":28,"ny":28,"refTime":"2024-06-21T21:00:00:Z","depth":"2","parameterNumber":3,"parameterNumberName":"V-component_of_CURRENTS"},"data":[0,0,0,0,0,0,0,0,0,0,0,0,0,0,0,0,0,0,0,0,0,0,0,0,0,0,0,0,0,0,0,0,0,0,0,0,0,0,0,0,0,0,0,0,0,0,0,0,0,0,0,0,0,0,0,0,0,0,0.0792,0.0792,0,0.0818,0.0818,0.0819,0.0797,0.0797,0.0796,0.0795,0.0771,0.0771,0.0771,0,0,0,0,0,0,0,0,0,0,0,0,0,0.0727,0.0728,0.0792,0.0792,0.0793,0.0818,0.0818,0.0819,0.0797,0.0796,0.0796,0.0795,0.0771,0.0771,0.0771,0,0,0,0,0,0,0,0,0,0,0,0,0,0.0753,0.0729,0.0791,0.0786,0.0786,0.0818,0.0818,0.0819,0.0798,0.0796,0.0795,0.0794,0.0771,0.0771,0.0771,0.0794,0,0,0.0771,0.0771,0,0,0,0,0,0,0,0,0.0751,0.0755,0.0787,0.0787,0.0787,0.0805,0.0787,0.0808,0.0798,0.0791,0.0795,0.0794,0.078,0.0779,0.0785,0.0792,0.0791,0.0771,0.0771,0.0772,0.0772,0,0,0,0,0,0,0,0.0749,0.0754,0.08,0.0787,0.0788,0.0785,0.0787,0.0791,0.0789,0.0792,0.0791,0.0797,0.0779,0.0785,0.0784,0.0791,0.0771,0.0771,0.0772,0.0772,0.0785,0.0785,0,0,0,0,0,0,0.0751,0.0752,0.0799,0.0801,0.0768,0.0787,0.0789,0.0799,0.079,0.0789,0.0798,0.0796,0.0785,0.0784,0.0783,0.0759,0.0772,0.0772,0.0772,0.0784,0.0785,0.0785,0,0,0,0,0,0,0.075,0.0755,0.0798,0.0778,0.0784,0.0789,0.08,0.08,0.0778,0.0796,0.0793,0.0774,0.0784,0.0783,0.0768,0.076,0.0772,0.0772,0.0784,0.0784,0.0785,0.0744,0,0,0,0,0,0,0.0748,0.0755,0.0745,0.0779,0.0785,0.0795,0.0801,0.0801,0.0787,0.0783,0.0775,0.0773,0.0783,0.0768,0.0768,0.076,0.0772,0.0784,0.0784,0.0785,0.0745,0.0743,0.0741,0,0,0,0,0,0.0746,0.0742,0.0745,0.0749,0.0777,0.0795,0.0796,0.0796,0.0786,0.0772,0.077,0.0772,0.0772,0.0768,0.0768,0.076,0.0783,0.0784,0.0785,0.0746,0.0743,0.0741,0,0,0,0,0,0,0.0707,0.0741,0.0744,0.0749,0.076,0.0791,0.0776,0.0781,0.077,0.0755,0.0769,0.0767,0.0753,0.0766,0.0761,0.0769,0.0781,0.0782,0.0751,0.0749,0.0747,0.0728,0.0772,0,0,0,0,0,0.0697,0.0699,0.0732,0.073,0.0732,0.0749,0.0749,0.075,0.0756,0.0749,0.0744,0.0749,0.0764,0.076,0.0767,0.0766,0.0778,0.0766,0.0764,0.0762,0.0748,0.0789,0.0789,0.0787,0.0787,0.0787,0,0,0.0681,0.0699,0.0699,0.072,0.0725,0.0717,0.0744,0.0736,0.0722,0.0749,0.0711,0.0732,0.0761,0.0761,0.0757,0.0765,0.0764,0.0763,0.0761,0.0748,0.0789,0.0789,0.0789,0.0788,0.0788,0.0788,0,0,0.0649,0.0664,0.065,0.0655,0.0661,0.0676,0.0667,0.0679,0.0673,0.0658,0.0682,0.0702,0.0696,0.0734,0.0752,0.0747,0.075,0.0744,0.0717,0.0757,0.0757,0.0757,0.0746,0.0746,0.0746,0.0746,0.0746,0,0.0617,0.0612,0.0646,0.0629,0.062,0.0651,0.0623,0.0633,0.0635,0.0641,0.063,0.0671,0.069,0.0732,0.0727,0.0742,0.0741,0.072,0.0753,0.0754,0.0755,0.0744,0.0744,0.0744,0.0744,0.0744,0.0744,0,0.0583,0.0561,0.0551,0.0541,0.054,0.052,0.0545,0.0537,0.0534,0.0558,0.0577,0.062,0.0648,0.0669,0.0688,0.0717,0.0704,0.0742,0.0754,0.0752,0.0741,0.0742,0.0741,0.0742,0.0742,0.0743,0,0,0.0534,0.0525,0.0513,0.0483,0.0485,0.0479,0.0469,0.0481,0.0479,0.0498,0.0507,0.0557,0.059,0.0614,0.0662,0.07,0.0702,0.0708,0.0711,0.0686,0.0739,0.0779,0.0784,0.074,0.074,0.0741,0.0718,0,0.0478,0.0429,0.0444,0.0377,0.0347,0.0373,0.0363,0.0384,0.0411,0.043,0.0511,0.053,0.057,0.058,0.0628,0.0688,0.0706,0.0701,0.0753,0.0753,0.0783,0.0788,0.0719,0.0699,0.0719,0.0719,0.0719,0,0.0428,0.0397,0.0333,0.029,0.0279,0.0249,0.0247,0.0243,0.0311,0.0333,0.0394,0.0454,0.0518,0.055,0.0639,0.0627,0.0661,0.0709,0.0711,0.0763,0.0797,0.0711,0.07,0.0721,0.0721,0.0721,0.0721,0,0.0376,0.0312,0.0255,0.0239,0.021,0.0181,0.0164,0.0208,0.021,0.0272,0.0286,0.0386,0.0411,0.0498,0.0583,0.0603,0.0669,0.0722,0.0787,0.0788,0.0748,0.0747,0.0768,0.0768,0.0768,0.0768,0.0768,0,0.0319,0.026,0.0216,0.0183,0.0106,0.0107,0.0058,0.0076,0.0109,0.0114,0.0221,0.0248,0.0395,0.0463,0.0553,0.0659,0.0642,0.0771,0.0796,0.0731,0.0728,0.0772,0.0773,0.0767,0.0768,0.0768,0.0768,0,0.0275,0.0249,0.0169,0.0108,0.0081,0.0021,-0.0032,-0.0052,-0.0015,-0.0005,0.0005,0.0124,0.0201,0.0339,0.0468,0.0603,0.0716,0.0747,0.0637,0.0652,0.081,0.0809,0.0839,0.0841,0.0842,0.0843,0.0844,0,0.0252,0.0211,0.0115,0.0052,0.001,-0.0073,-0.0122,-0.0119,-0.0135,-0.008,-0.008,-0.0,0.0069,0.0278,0.0472,0.0633,0.0665,0.0721,0.0786,0.0802,0.0822,0.0819,0.0817,0.0689,0.0688,0.0688,0.0688,0,0.0206,0.0173,0.012,-0.0014,-0.0103,-0.0192,-0.0265,-0.0288,-0.0274,-0.0255,-0.0222,-0.0161,0.0029,0.021,0.0445,0.0556,0.0707,0.0724,0.076,0.0706,0.0666,0.0685,0.0686,0.0684,0.0685,0.0685,0.0685,0.0685,0.0172,0.0124,0.0043,-0.0086,-0.0203,-0.0321,-0.0388,-0.0424,-0.0455,-0.0437,-0.0342,-0.0247,-0.0027,0.0275,0.0448,0.0635,0.0675,0.0775,0.0773,0.0772,0.0784,0.0751,0.0783,0.0784,0.0784,0.0785,0.0786,0,0.0135,0.0072,-0.0035,-0.0195,-0.0347,-0.0397,-0.0492,-0.0532,-0.0576,-0.0532,-0.0484,-0.0241,-0.0027,0.018,0.0463,0.0688,0.0663,0.0729,0.0656,0.0658,0.0661,0.0665,0.0633,0.0634,0.0634,0.0634,0,0,0.0111,0.0025,-0.0026,-0.0288,-0.0432,-0.0615,-0.0678,-0.0684,-0.0665,-0.0624,-0.0541,-0.0392,-0.0078,0.0108,0.0342,0.048,0.0512,0.049,0.0591,0.0476,0.0475,0.0669,0.0677,0,0,0,0,0]}],[{"header":{"parameterUnit":"m.s-1","parameterCategory":2,"la1":30.2991,"la2":30.254,"lo1":-89.0895,"lo2":-89.0444,"dy":0.0017,"dx":0.0017,"nx":28,"ny":28,"refTime":"2024-06-21T21:00:00:Z","depth":"4","parameterNumber":2,"parameterNumberName":"U-component_of_CURRENTS"},"data":[0,0,0,0,0,0,0,0,0,0,0,0,0,0,0,0,0,0,0,0,0,0,0,0,0,0,0,0,0,0,0,0,0,0,0,0,0,0,0,0,0,0,0,0,0,0,0,0,0,0,0,0,0,0,0,0,0,0,-0.0728,-0.0728,0,-0.0739,-0.0739,-0.074,-0.0756,-0.0756,-0.0756,-0.0756,-0.0781,-0.0782,-0.0782,0,0,0,0,0,0,0,0,0,0,0,0,0,-0.0767,-0.0766,-0.0728,-0.0728,-0.0728,-0.0739,-0.0739,-0.074,-0.0756,-0.0756,-0.0756,-0.0756,-0.0781,-0.0782,-0.0783,0,0,0,0,0,0,0,0,0,0,0,0,0,-0.0763,-0.0766,-0.0728,-0.0736,-0.0737,-0.0739,-0.0739,-0.074,-0.0756,-0.0756,-0.0756,-0.0757,-0.0781,-0.0782,-0.0783,-0.0785,0,0,-0.0785,-0.0786,0,0,0,0,0,0,0,0,-0.0763,-0.0762,-0.0735,-0.0736,-0.0736,-0.0745,-0.0762,-0.0755,-0.0756,-0.0751,-0.0756,-0.0757,-0.0769,-0.0771,-0.0775,-0.0786,-0.0787,-0.0785,-0.0786,-0.0786,-0.0786,0,0,0,0,0,0,0,-0.0764,-0.0762,-0.0735,-0.0735,-0.0736,-0.0755,-0.0754,-0.0761,-0.0761,-0.0751,-0.0752,-0.075,-0.077,-0.0774,-0.0776,-0.0787,-0.0785,-0.0786,-0.0787,-0.0787,-0.0852,-0.0854,0,0,0,0,0,0,-0.0755,-0.0762,-0.0734,-0.0735,-0.0748,-0.0753,-0.0753,-0.0743,-0.076,-0.0762,-0.075,-0.0751,-0.0773,-0.0775,-0.0777,-0.0832,-0.0786,-0.0787,-0.0787,-0.0851,-0.0853,-0.0854,0,0,0,0,0,0,-0.0756,-0.0752,-0.0734,-0.0748,-0.0746,-0.0752,-0.0742,-0.0743,-0.0758,-0.0759,-0.0761,-0.0763,-0.0773,-0.0776,-0.0801,-0.0831,-0.0787,-0.0788,-0.085,-0.0852,-0.0853,-0.0908,0,0,0,0,0,0,-0.0757,-0.0752,-0.075,-0.0746,-0.0745,-0.0742,-0.0741,-0.0744,-0.0754,-0.0756,-0.077,-0.0772,-0.0773,-0.08,-0.0802,-0.0831,-0.0789,-0.0848,-0.0851,-0.0853,-0.0905,-0.0912,-0.0918,0,0,0,0,0,-0.0758,-0.0748,-0.0749,-0.0746,-0.0738,-0.0742,-0.0744,-0.0751,-0.0755,-0.0764,-0.078,-0.0772,-0.0816,-0.0802,-0.0804,-0.0834,-0.0847,-0.085,-0.0853,-0.0902,-0.091,-0.0917,0,0,0,0,0,0,-0.0761,-0.0748,-0.075,-0.0736,-0.0744,-0.0745,-0.0747,-0.0756,-0.0776,-0.0781,-0.0786,-0.0789,-0.0826,-0.0819,-0.0803,-0.086,-0.0831,-0.0834,-0.0868,-0.0876,-0.0882,-0.0865,-0.0789,0,0,0,0,0,-0.076,-0.0749,-0.0748,-0.0739,-0.0741,-0.0748,-0.0753,-0.0761,-0.0773,-0.0781,-0.0794,-0.0811,-0.0837,-0.0847,-0.0863,-0.0889,-0.0875,-0.091,-0.0916,-0.0922,-0.0909,-0.0928,-0.0934,-0.0863,-0.0863,-0.0863,0,0,-0.0758,-0.0749,-0.0744,-0.074,-0.0743,-0.0751,-0.0752,-0.0761,-0.0781,-0.0781,-0.0813,-0.0834,-0.0849,-0.0886,-0.0901,-0.0885,-0.0936,-0.0925,-0.093,-0.0914,-0.0931,-0.0938,-0.0944,-0.0865,-0.0865,-0.0864,0,0,-0.0743,-0.0742,-0.0729,-0.0738,-0.0745,-0.0757,-0.0762,-0.0775,-0.0796,-0.0825,-0.0842,-0.0875,-0.0902,-0.0926,-0.0941,-0.0987,-0.0972,-0.1001,-0.1017,-0.1036,-0.1042,-0.1047,-0.1041,-0.1045,-0.1002,-0.1002,-0.1002,0,-0.0742,-0.0721,-0.0729,-0.0726,-0.0732,-0.076,-0.0761,-0.0792,-0.0818,-0.0839,-0.084,-0.0904,-0.092,-0.0973,-0.0995,-0.1002,-0.1001,-0.0989,-0.1044,-0.1048,-0.1052,-0.1045,-0.1049,-0.1005,-0.1004,-0.1004,-0.1004,0,-0.0719,-0.0712,-0.0707,-0.0713,-0.073,-0.0734,-0.0773,-0.0807,-0.0835,-0.0863,-0.0921,-0.095,-0.0982,-0.1008,-0.1016,-0.1065,-0.1052,-0.1053,-0.1023,-0.1063,-0.1053,-0.1056,-0.1009,-0.1008,-0.1007,-0.1006,0,0,-0.0681,-0.0687,-0.0685,-0.0684,-0.0721,-0.0728,-0.078,-0.0823,-0.0856,-0.0905,-0.0941,-0.1006,-0.1025,-0.1041,-0.1069,-0.109,-0.1126,-0.1086,-0.1085,-0.1076,-0.1155,-0.1064,-0.1058,-0.1144,-0.1144,-0.1145,-0.1137,0,-0.0655,-0.0639,-0.0658,-0.0663,-0.0657,-0.0712,-0.0756,-0.0814,-0.0865,-0.0915,-0.0974,-0.1023,-0.1041,-0.1066,-0.1093,-0.1125,-0.1135,-0.1127,-0.112,-0.1119,-0.1031,-0.1059,-0.1147,-0.1139,-0.114,-0.114,-0.114,0,-0.0621,-0.0612,-0.0606,-0.0627,-0.0632,-0.0675,-0.0743,-0.0779,-0.0876,-0.091,-0.0976,-0.1022,-0.1088,-0.1085,-0.1143,-0.114,-0.1143,-0.1156,-0.1156,-0.1048,-0.1033,-0.109,-0.1145,-0.1144,-0.1144,-0.1144,-0.1143,0,-0.0574,-0.0574,-0.0567,-0.0575,-0.0616,-0.0661,-0.0707,-0.0799,-0.0824,-0.0925,-0.0947,-0.1034,-0.1074,-0.1109,-0.1142,-0.115,-0.1178,-0.1191,-0.1106,-0.1099,-0.1158,-0.1153,-0.1204,-0.1204,-0.1204,-0.1204,-0.1204,0,-0.0531,-0.0522,-0.0561,-0.056,-0.0582,-0.0637,-0.0692,-0.0746,-0.0823,-0.0835,-0.0947,-0.0963,-0.1082,-0.1116,-0.1139,-0.1122,-0.1175,-0.1099,-0.1092,-0.1182,-0.1179,-0.1159,-0.1154,-0.1204,-0.1204,-0.1204,-0.1204,0,-0.0485,-0.0498,-0.0488,-0.0537,-0.0562,-0.0591,-0.0677,-0.0696,-0.0783,-0.0803,-0.0832,-0.0929,-0.0973,-0.1054,-0.111,-0.1101,-0.1106,-0.1078,-0.1152,-0.115,-0.1014,-0.1012,-0.0991,-0.0987,-0.0985,-0.0982,-0.098,0,-0.0458,-0.0448,-0.047,-0.0468,-0.0506,-0.0562,-0.0586,-0.0676,-0.0676,-0.0752,-0.0727,-0.0819,-0.0873,-0.0891,-0.098,-0.1021,-0.1014,-0.1013,-0.1029,-0.0998,-0.0993,-0.0996,-0.0997,-0.0976,-0.0975,-0.0975,-0.0974,0,-0.0408,-0.0423,-0.0417,-0.0414,-0.0442,-0.0437,-0.0484,-0.0479,-0.054,-0.0621,-0.0629,-0.0694,-0.0735,-0.0822,-0.0864,-0.0887,-0.1024,-0.0985,-0.0991,-0.1006,-0.098,-0.0979,-0.0983,-0.0964,-0.0966,-0.0967,-0.0967,0,-0.0379,-0.0366,-0.0361,-0.0359,-0.0349,-0.0307,-0.0353,-0.0361,-0.0386,-0.0473,-0.0469,-0.0582,-0.0688,-0.0745,-0.077,-0.0807,-0.0811,-0.0808,-0.0824,-0.0835,-0.0795,-0.074,-0.0635,0,0,0,0,0,-0.0344,-0.0324,-0.0302,-0.0279,-0.0252,-0.0253,-0.0254,-0.0292,-0.0361,-0.0335,-0.0408,-0.0446,-0.0538,-0.0606,-0.0619,-0.0697,-0.0803,-0.0708,-0.0803,-0.0912,-0.0923,-0.0894,0,0,0,0,0,0,-0.0321,-0.0303,-0.0286,-0.0203,-0.0168,-0.0135,-0.0128,-0.0173,-0.017,-0.0261,-0.0316,-0.0415,-0.0512,-0.0531,-0.0613,-0.0632,-0.068,-0.0789,-0.0787,-0.0905,-0.0915,-0.0924,-0.0899,0,0,0,0,0]},{"header":{"parameterUnit":"m.s-1","parameterCategory":2,"la1":30.2991,"la2":30.254,"lo1":-89.0895,"lo2":-89.0444,"dy":0.0017,"dx":0.0017,"nx":28,"ny":28,"refTime":"2024-06-21T21:00:00:Z","depth":"4","parameterNumber":3,"parameterNumberName":"V-component_of_CURRENTS"},"data":[0,0,0,0,0,0,0,0,0,0,0,0,0,0,0,0,0,0,0,0,0,0,0,0,0,0,0,0,0,0,0,0,0,0,0,0,0,0,0,0,0,0,0,0,0,0,0,0,0,0,0,0,0,0,0,0,0,0,0.0254,0.0253,0,0.0215,0.0215,0.0214,0.0253,0.0254,0.0256,0.0257,0.0274,0.0274,0.0273,0,0,0,0,0,0,0,0,0,0,0,0,0,0.0348,0.0346,0.0254,0.0253,0.0253,0.0215,0.0215,0.0214,0.0253,0.0254,0.0256,0.0258,0.0275,0.0274,0.0273,0,0,0,0,0,0,0,0,0,0,0,0,0,0.031,0.0346,0.0254,0.0266,0.0266,0.0215,0.0215,0.0214,0.0252,0.0254,0.0256,0.0258,0.0275,0.0274,0.0273,0.0225,0,0,0.0269,0.0268,0,0,0,0,0,0,0,0,0.0312,0.0307,0.0265,0.0265,0.0265,0.0239,0.0254,0.022,0.0252,0.026,0.0257,0.0259,0.0265,0.0265,0.0255,0.0226,0.0227,0.0269,0.0268,0.0268,0.0267,0,0,0,0,0,0,0,0.0315,0.0308,0.0241,0.0264,0.0264,0.0268,0.0265,0.0248,0.0254,0.0259,0.0261,0.0253,0.0266,0.0256,0.0256,0.0227,0.0269,0.0268,0.0267,0.0267,0.02,0.0199,0,0,0,0,0,0,0.0313,0.031,0.0242,0.0239,0.0292,0.0265,0.0262,0.0247,0.0253,0.0255,0.0252,0.0255,0.0257,0.0257,0.0257,0.0231,0.0268,0.0267,0.0266,0.0201,0.02,0.0198,0,0,0,0,0,0,0.0315,0.0307,0.0243,0.0273,0.0265,0.0261,0.0244,0.0245,0.0244,0.0246,0.025,0.025,0.0259,0.0258,0.024,0.0231,0.0266,0.0265,0.0202,0.02,0.0199,0.016,0,0,0,0,0,0,0.0318,0.0308,0.0298,0.0273,0.0263,0.0208,0.0242,0.0243,0.0234,0.0239,0.0246,0.0249,0.026,0.0242,0.0239,0.023,0.0264,0.0203,0.0201,0.0199,0.0162,0.0157,0.0153,0,0,0,0,0,0.0322,0.029,0.0298,0.029,0.0249,0.0206,0.0202,0.0208,0.0232,0.0217,0.0227,0.0249,0.0228,0.0239,0.0236,0.0227,0.0204,0.0202,0.02,0.0165,0.0158,0.0153,0,0,0,0,0,0,0.0318,0.029,0.0299,0.026,0.0237,0.0213,0.0195,0.0203,0.0196,0.0208,0.0225,0.0227,0.0211,0.0216,0.0228,0.0202,0.0223,0.022,0.0198,0.0192,0.0187,0.0185,0.0263,0,0,0,0,0,0.0313,0.029,0.0264,0.0233,0.022,0.021,0.0196,0.0198,0.0187,0.0187,0.0189,0.0195,0.0194,0.0192,0.0186,0.016,0.0192,0.0155,0.015,0.0146,0.0142,0.0185,0.0184,0.019,0.019,0.019,0,0,0.0304,0.0285,0.0273,0.0232,0.0217,0.0176,0.0206,0.0177,0.0152,0.0188,0.0156,0.0172,0.0182,0.0162,0.0156,0.0168,0.0159,0.0143,0.0139,0.0137,0.0182,0.0182,0.0182,0.0189,0.0189,0.0189,0,0,0.0262,0.0255,0.0221,0.0194,0.0164,0.0153,0.0145,0.0118,0.0119,0.0085,0.0117,0.0126,0.0103,0.0119,0.0124,0.0083,0.0131,0.0083,0.0057,0.0098,0.0098,0.0099,0.014,0.0144,0.0082,0.0082,0.0082,0,0.0255,0.0205,0.0203,0.0156,0.0126,0.014,0.0089,0.0081,0.0055,0.0051,0.0069,0.0068,0.0083,0.008,0.0074,0.0073,0.0106,0.0081,0.0094,0.0095,0.0097,0.0138,0.0144,0.008,0.008,0.008,0.008,0,0.0185,0.0144,0.0116,0.0068,0.0036,-0.0006,-0.0022,-0.004,-0.0032,-0.0029,-0.0032,-0.0006,0.0,0.0011,0.003,0.0045,0.0068,0.0085,0.0114,0.0094,0.0138,0.0145,0.0077,0.0077,0.0078,0.0079,0,0,0.0171,0.0086,0.0077,0.0037,-0.0013,-0.0049,-0.0091,-0.0122,-0.0139,-0.0129,-0.0142,-0.0119,-0.0077,-0.0068,-0.0029,0.0012,0.0058,0.0052,0.0055,0.01,0.0155,0.0134,0.014,0.0084,0.0085,0.0086,0.0182,0,0.0119,0.0024,-0.0009,-0.01,-0.0151,-0.0166,-0.021,-0.0227,-0.0224,-0.0232,-0.0171,-0.0168,-0.0115,-0.01,-0.005,0.0035,0.0073,0.003,0.016,0.0163,0.0154,0.0146,0.0088,0.0187,0.0189,0.019,0.0191,0,0.0064,0.0007,-0.0087,-0.0184,-0.0208,-0.0256,-0.031,-0.0349,-0.0342,-0.0333,-0.0298,-0.0252,-0.0183,-0.014,0.0001,-0.0025,0.0054,0.0122,0.0128,0.0126,0.0154,0.0211,0.0204,0.0203,0.0202,0.0201,0.02,0,0.0064,-0.0052,-0.0123,-0.0158,-0.0257,-0.0297,-0.0343,-0.0369,-0.04,-0.0383,-0.0384,-0.0301,-0.0254,-0.0137,0.001,0.001,0.0169,0.0184,0.0235,0.0235,0.0245,0.0244,0.0265,0.0265,0.0265,0.0265,0.0264,0,0.0018,-0.0044,-0.0127,-0.017,-0.0253,-0.0317,-0.0391,-0.0417,-0.045,-0.047,-0.0424,-0.0407,-0.0249,-0.0142,-0.0007,0.0141,0.0159,0.0228,0.0256,0.0225,0.022,0.0251,0.0248,0.0268,0.0268,0.0267,0.0266,0,0.0015,-0.0038,-0.0124,-0.0225,-0.0256,-0.0312,-0.0424,-0.0474,-0.05,-0.0522,-0.0515,-0.0466,-0.0326,-0.017,0.0025,0.0108,0.0257,0.0297,0.0253,0.0278,0.0299,0.0293,0.036,0.036,0.036,0.036,0.036,0,-0.0008,-0.0047,-0.014,-0.0175,-0.0224,-0.0316,-0.0381,-0.047,-0.0513,-0.0547,-0.0545,-0.0461,-0.0394,-0.0137,0.0017,0.0251,0.0274,0.0334,0.0312,0.0287,0.0308,0.0302,0.0296,0.036,0.036,0.036,0.036,0,-0.0046,-0.0059,-0.0119,-0.017,-0.0241,-0.0343,-0.0432,-0.0463,-0.0548,-0.0577,-0.0551,-0.0459,-0.0322,-0.0138,0.0032,0.0199,0.0291,0.0335,0.0336,0.0315,0.0288,0.0308,0.0301,0.036,0.036,0.036,0.036,0,-0.006,-0.0091,-0.0134,-0.0183,-0.0247,-0.0325,-0.0398,-0.0459,-0.0521,-0.055,-0.0533,-0.042,-0.036,-0.0165,0.0003,0.0154,0.0183,0.0217,0.0225,0.0226,0.0151,0.0095,0.013,0,0,0,0,0,-0.0081,-0.0105,-0.0146,-0.0211,-0.0258,-0.0302,-0.0406,-0.0476,-0.0541,-0.0518,-0.053,-0.0402,-0.0217,-0.0154,0.0,0.0013,0.0219,0.0193,0.0266,0.036,0.036,0.0291,0,0,0,0,0,0,-0.0103,-0.0135,-0.0148,-0.0198,-0.0225,-0.0323,-0.038,-0.0445,-0.0438,-0.0466,-0.0359,-0.0365,-0.0166,-0.0271,0.0014,0.0048,0.0109,0.0268,0.0271,0.036,0.036,0.036,0.0289,0,0,0,0,0]}]]